DateTimeUTC,F1_A11,F1_S11,BsB_S11,BsG_S11,BsR_S11,BbsB_S11,BbsG_S11,BbsR_S11,BaB_A11,BaG_A11,BaR_A11,Tu_S11,T_S11,Uu_S11,U_S11,P_S11,T1_A11
2021-11-22T10:00:00Z,00000200,21000000,,,,,,,-000.15,-000.36,0000.02,19.6,26.5,,00.0,0632.6,31.0
2021-11-22T10:01:00Z,00000200,21000000,,,,,,,0000.07,0000.10,-000.02,19.6,26.5,,00.0,0632.5,31.0
2021-11-22T10:02:00Z,00000200,21000000,,,,,,,-000.06,0000.25,-000.31,19.5,26.5,,00.0,0632.5,30.9
2021-11-22T10:03:00Z,00000200,61000000,,,,,,,0000.05,0000.25,0000.49,19.5,26.5,,00.0,0632.5,31.0
2021-11-22T10:04:00Z,00000200,41000000,0000.34,-000.03,0000.03,0000.48,0000.02,-000.05,0000.12,-000.32,-000.16,19.5,26.2,,00.0,0633.4,30.9
2021-11-22T10:05:00Z,00000200,01000000,0000.73,0000.20,-000.14,0000.33,-000.28,-000.01,0000.20,0000.13,0000.17,19.6,26.2,,00.0,0633.4,31.0
2021-11-22T10:06:00Z,00000200,01000000,-000.14,-000.02,-000.36,-000.54,0000.12,-000.49,0000.06,0000.07,-000.07,19.7,26.2,,00.0,0633.4,31.0
2021-11-22T10:07:00Z,00000200,01000000,0000.08,-000.17,-000.07,0000.58,-000.26,0000.02,0000.11,0000.22,0000.17,19.7,26.2,,00.0,0633.4,31.0
2021-11-22T10:08:00Z,00000200,01000000,-000.15,-000.06,-000.06,-000.65,0000.38,0000.30,0000.09,-000.07,0000.03,19.8,26.2,,00.0,0633.4,31.0
2021-11-22T10:09:00Z,00000200,01000000,-000.07,0000.41,-000.25,0000.02,-000.03,-000.20,0000.06,-000.17,0000.11,19.8,26.2,,00.0,0633.4,31.0
2021-11-22T10:10:00Z,00000200,01000000,0000.92,0000.40,-000.15,-000.29,-000.12,-000.27,-000.05,0000.41,-000.01,19.9,26.3,,00.0,0633.3,31.0
2021-11-22T10:11:00Z,00000200,01000000,0000.09,-000.20,-000.15,0000.32,0000.27,-000.07,0000.05,-000.24,0000.24,19.9,26.3,,00.0,0633.3,31.0
2021-11-22T10:12:00Z,00000200,01000000,0000.48,-000.01,0000.05,0000.14,-000.01,0000.32,0000.04,0000.14,-000.08,20.0,26.3,,00.0,0633.3,31.0
2021-11-22T10:13:00Z,00000200,01000000,0000.30,0000.06,-000.06,0000.84,0000.08,0000.04,-000.19,-000.05,-000.11,20.0,26.3,,00.0,0633.3,31.0
2021-11-22T10:14:00Z,00000200,01000000,-000.04,-000.04,-000.16,0000.19,0000.01,-000.29,-000.10,0000.20,0000.10,20.0,26.4,,00.0,0633.3,31.0
2021-11-22T10:15:00Z,00000200,01000000,-000.44,0000.06,-000.15,0000.28,-000.17,-000.56,0000.44,-000.15,0000.14,19.9,26.4,,00.0,0633.3,31.0
2021-11-22T10:16:00Z,00000200,01000000,0000.22,-000.01,-000.51,-000.91,-000.02,-000.37,-000.31,0000.15,-000.17,19.9,26.3,,00.0,0633.2,31.0
2021-11-22T10:17:00Z,00000200,01000000,0000.56,0000.26,-000.21,-000.31,0000.30,-000.06,0000.38,0000.19,0000.12,19.8,26.3,,00.0,0633.3,31.0
2021-11-22T10:18:00Z,00000200,01000000,0000.95,0000.05,0000.26,-000.35,-000.09,-000.10,-000.07,0000.13,0000.24,19.7,26.3,,00.0,0633.2,31.0
2021-11-22T10:19:00Z,00000200,01000000,-000.08,-000.17,0000.02,0000.10,0000.15,-000.59,0000.12,0000.02,-000.00,19.7,26.2,,00.0,0633.3,31.0
2021-11-22T10:20:00Z,00000200,01000000,0000.08,0000.12,-000.13,-000.28,-000.02,0000.28,0000.19,0000.12,0000.21,19.8,26.2,,00.0,0633.2,31.0
2021-11-22T10:21:00Z,00000200,01000000,-000.28,0000.50,-000.25,-000.10,-000.01,-000.30,-000.20,-000.00,-000.24,19.8,26.2,,00.0,0633.3,31.0
2021-11-22T10:22:00Z,00000200,01000000,-000.23,0000.44,-000.32,-000.23,0000.08,-000.21,0000.24,-000.23,-000.02,19.9,26.2,,00.0,0633.3,31.0
2021-11-22T10:23:00Z,00000200,01000000,-000.63,-000.16,-000.13,-000.61,-000.14,-000.15,0000.12,0000.28,0000.04,19.9,26.3,,00.0,0633.3,31.0
2021-11-22T10:24:00Z,00000200,01000000,-000.20,-000.30,-000.02,0000.20,0000.19,-000.10,-000.17,-000.20,-000.11,19.9,26.3,,00.0,0633.3,31.0
2021-11-22T10:25:00Z,00000200,01000000,0000.39,0000.17,-000.05,0000.10,-000.05,0000.26,-000.11,0000.05,0000.16,20.0,26.3,,00.0,0633.3,31.0
2021-11-22T10:26:00Z,00000200,01000000,-000.07,-000.05,-000.32,0000.04,-000.27,-000.27,-000.29,0000.08,0000.29,20.0,26.3,,00.0,0633.3,31.0
2021-11-22T10:27:00Z,00000200,01000000,-000.10,0000.23,0000.30,-000.11,0000.10,-000.21,0000.40,-000.05,0000.01,20.1,26.4,,00.0,0633.3,31.0
2021-11-22T10:28:00Z,00000200,01000000,-000.22,0000.11,-000.22,0000.06,0000.24,-000.17,0000.23,0000.33,0000.08,20.1,26.4,,00.0,0633.3,31.0
2021-11-22T10:29:00Z,00000200,01000000,0000.05,0000.20,-000.38,0000.11,-000.02,-000.15,-000.39,-000.64,-000.23,20.1,26.4,,00.0,0633.3,31.0
2021-11-22T10:30:00Z,00000200,01000000,-000.38,0000.00,0000.27,0000.34,0000.12,-000.12,0000.20,0000.32,-000.08,20.0,26.4,,00.0,0633.3,31.0
2021-11-22T10:31:00Z,00000200,01000000,0000.02,0000.24,0000.04,0000.16,-000.25,-000.15,-000.33,-000.22,0000.19,20.0,26.4,,00.0,0633.3,31.0
2021-11-22T10:32:00Z,00000200,01000000,-000.96,0000.13,0000.13,-000.42,0000.11,-000.41,0000.47,0000.43,-000.50,19.9,26.4,,00.0,0633.2,31.0
2021-11-22T10:33:00Z,00000200,01000000,0000.60,0000.17,-000.47,0000.03,0000.07,-000.37,-000.28,0000.01,0000.28,19.9,26.3,,00.0,0633.2,31.0
2021-11-22T10:34:00Z,00000200,01000000,-000.60,0000.23,-000.09,-000.40,0000.35,-000.29,0000.26,0000.10,0000.10,19.9,26.3,,00.0,0633.2,31.0
2021-11-22T10:35:00Z,00000200,01000000,0000.06,0000.13,0000.10,-000.32,0000.01,0000.14,-000.15,-000.10,0000.21,19.9,26.3,,00.0,0633.2,31.0
2021-11-22T10:36:00Z,00000200,01000000,0000.14,-000.01,-000.14,-000.12,-000.12,-000.15,0000.24,0000.33,-000.10,19.9,26.3,,00.0,0633.2,31.0
2021-11-22T10:37:00Z,00000200,01000000,-000.33,-000.07,-000.33,-000.42,0000.32,-000.16,0000.19,-000.17,0000.05,20.0,26.3,,00.0,0633.2,31.0
2021-11-22T10:38:00Z,00000200,01000000,-000.28,-000.05,-000.17,0000.02,0000.30,-000.26,-000.28,0000.24,0000.16,20.0,26.4,,00.0,0633.3,31.0
2021-11-22T10:39:00Z,00000200,01000000,-000.30,0000.21,-000.13,0000.07,0000.06,0000.03,0000.40,-000.05,0000.34,20.1,26.4,,00.0,0633.3,31.0
2021-11-22T10:40:00Z,00000200,01000000,-000.07,-000.02,-000.23,-000.28,-000.28,0000.06,-000.16,-000.24,-000.18,20.1,26.4,,00.0,0633.3,31.0
2021-11-22T10:41:00Z,00000200,01000000,-000.57,-000.12,-000.18,-000.46,-000.02,0000.22,0000.04,-000.01,-000.03,20.2,26.4,,00.0,0633.3,31.0
2021-11-22T10:42:00Z,00000200,01000000,0000.03,-000.13,-000.18,-000.09,0000.06,0000.13,-000.10,0000.01,-000.03,20.2,26.5,,00.0,0633.3,31.0
2021-11-22T10:43:00Z,00000200,01000000,-000.01,0000.03,-000.20,-000.98,-000.14,-000.16,-000.12,-000.20,0000.02,20.2,26.5,,00.0,0633.4,31.0
2021-11-22T10:44:00Z,00000200,01000000,0000.13,0000.53,0000.00,0000.21,-000.13,-000.13,0000.12,0000.19,-000.16,20.2,26.5,,00.0,0633.3,31.0
2021-11-22T10:45:00Z,00000200,01000000,0000.40,0000.02,-000.38,-000.37,-000.07,0000.18,-000.10,0000.01,0000.02,20.1,26.5,,00.0,0633.3,31.0
2021-11-22T10:46:00Z,00000200,01000000,-000.68,0000.04,-000.23,-000.16,-000.09,0000.11,0000.01,-000.03,-000.03,20.0,26.4,,00.0,0633.3,31.0
2021-11-22T10:47:00Z,00000200,01000000,-000.06,-000.05,-000.10,0000.15,0000.03,-000.04,-000.08,0000.00,-000.17,19.9,26.4,,00.0,0633.3,31.0
2021-11-22T10:48:00Z,00000200,01000000,0001.03,0000.33,0000.09,-000.43,-000.13,0000.13,0000.20,-000.08,0000.46,19.9,26.4,,00.0,0633.3,31.0
2021-11-22T10:49:00Z,00000200,01000000,0000.53,0000.30,-000.19,-000.19,-000.08,0000.02,0000.01,0000.41,-000.12,19.9,26.3,,00.0,0633.3,31.0
2021-11-22T10:50:00Z,00000200,01000000,0000.49,0000.14,-000.09,0000.10,-000.12,0000.11,0000.06,0000.12,0000.15,19.9,26.4,,00.0,0633.3,31.0
2021-11-22T10:51:00Z,00000200,01000000,-000.10,0000.12,-000.21,-000.43,-000.07,-000.10,-000.01,-000.11,-000.06,20.0,26.4,,00.0,0633.3,31.0
2021-11-22T10:52:00Z,00000200,01000000,0000.33,0000.23,0000.01,-000.24,-000.03,0000.26,0000.14,-000.05,0000.12,20.0,26.4,,00.0,0633.3,31.0
2021-11-22T10:53:00Z,00000200,01000000,0000.23,-000.08,0000.20,0000.23,0000.14,-000.09,0000.19,0000.30,-000.14,20.0,26.4,,00.0,0633.3,31.0
2021-11-22T10:54:00Z,00000200,01000000,-000.29,0000.04,0000.01,0000.35,-000.05,0000.03,0000.01,-000.40,0000.38,20.1,26.4,,00.0,0633.2,31.0
2021-11-22T10:55:00Z,00000200,01000000,0000.58,-000.34,-000.30,-000.13,0000.05,0000.12,0000.27,0000.26,-000.09,20.2,26.4,,00.0,0633.2,31.0
2021-11-22T10:56:00Z,00000200,01000000,0000.68,0000.19,0000.01,0000.84,-000.14,0000.01,-000.05,0000.34,0000.25,20.2,26.5,,00.0,0633.3,31.0
2021-11-22T10:57:00Z,00000200,41000000,,,,,,,-000.04,-000.12,-000.32,20.3,26.5,,00.0,0633.2,31.0
2021-11-22T10:58:00Z,00000200,61000000,,,,,,,-000.25,-000.07,0000.02,19.9,26.6,,00.0,0632.4,31.0
2021-11-22T10:59:00Z,00000200,21000000,,,,,,,-000.13,-000.28,0000.07,19.9,26.7,,00.0,0632.4,31.0
